EW9798 Weather Reports


Display with metric or nautical units.
time (UTC)temp
F
wind
direction
speed
MPH
gust
MPH
rain 1hr
in
rain 24hr
in
rain mn
in
humidity
%
barometer
mb
20260507180107 61 356 5.0 11.0 0.00 0.00 0.00 59 1019.4
20260507173029 59 359 5.0 10.0 0.00 0.00 0.00 64 1019.9
20260507171533 59 349 5.0 11.0 0.00 0.00 0.00 65 1020.1
20260507170031 58 355 5.0 9.0 0.00 0.00 0.00 67 1020.1
20260507164532 57 343 6.0 11.0 0.00 0.00 0.00 69 1020.2
20260507163037 57 11 6.0 12.0 0.00 0.00 0.00 70 1020.3
20260507161532 56 355 4.0 11.0 0.00 0.00 0.00 72 1020.3
20260507160107 55 337 5.0 13.0 0.00 0.00 0.00 73 1020.4
20260507151648 54 327 4.0 8.0 0.00 0.00 0.00 77 1020.6
20260507150038 53 336 5.0 14.0 0.00 0.00 0.00 79 1020.7
20260507144607 52 335 5.0 12.0 0.00 0.00 0.00 81 1020.6
20260507143106 51 357 4.0 11.0 0.00 0.00 0.00 83 1020.6
20260507141530 50 17 3.0 9.0 0.00 0.00 0.00 84 1020.6
20260507140032 50 36 5.0 11.0 0.00 0.00 0.00 85 1020.3
20260507134605 50 51 5.0 10.0 0.00 0.00 0.00 87 1020.2
20260507133028 49 60 5.0 9.0 0.00 0.00 0.00 88 1020.1
20260507131531 48 75 5.0 9.0 0.00 0.00 0.00 87 1020.0
20260507130031 49 98 3.0 7.0 0.00 0.00 0.00 86 1019.9
20260507124529 50 86 4.0 6.0 0.00 0.00 0.00 85 1019.9
20260507123107 51 44 4.0 7.0 0.00 0.00 0.00 85 1020.0
20260507120146 50 57 5.0 9.0 0.00 0.00 0.00 85 1019.9
20260507114536 51 86 4.0 8.0 0.00 0.00 0.00 84 1019.8
20260507113108 51 58 3.0 7.0 0.00 0.00 0.00 84 1019.7
20260507111530 52 25 2.0 6.0 0.00 0.00 0.00 85 1019.6
20260507110029 50 43 4.0 8.0 0.00 0.00 0.00 88 1019.5
20260507104530 49 51 3.0 7.0 0.00 0.00 0.00 87 1019.4
20260507103107 49 94 2.0 6.0 0.00 0.00 0.00 84 1019.5
20260507101532 51 111 2.0 5.0 0.00 0.00 0.00 83 1019.6
20260507100037 52 265 0.0 5.0 0.00 0.00 0.00 83 1019.6
20260507094531 52 268 0.0 7.0 0.00 0.00 0.00 82 1019.6
20260507093144 54 304 0.0 3.0 0.00 0.00 0.00 79 1019.7
20260507091606 54 275 2.0 6.0 0.00 0.00 0.00 78 1019.6
20260507084529 58 282 6.0 13.0 0.00 0.00 0.00 71 1019.7
20260507083029 58 248 8.0 17.0 0.00 0.00 0.00 73 1019.5
20260507081531 56 254 8.0 19.0 0.00 0.00 0.00 81 1019.6
20260507080104 53 278 3.0 11.0 0.00 0.00 0.00 87 1019.7
20260507074532 51 254 3.0 8.0 0.00 0.00 0.00 89 1019.8
20260507073106 51 219 0.0 2.0 0.00 0.00 0.00 89 1019.9
20260507071531 51 164 0.0 3.0 0.00 0.00 0.00 88 1020.0
20260507070029 51 135 0.0 3.0 0.00 0.00 0.00 87 1020.0
20260507064532 52 136 2.0 4.0 0.00 0.00 0.00 86 1020.0
20260507063030 53 220 0.0 3.0 0.00 0.00 0.00 85 1020.0
20260507061646 54 184 1.0 4.0 0.00 0.00 0.00 83 1020.0
20260507060031 56 207 0.0 4.0 0.00 0.00 0.00 81 1020.1
20260507054530 57 277 1.0 5.0 0.00 0.00 0.00 80 1020.3
20260507053036 57 281 1.0 9.0 0.00 0.00 0.00 79 1020.4
20260507051529 58 295 0.0 6.0 0.00 0.00 0.00 77 1020.5
20260507050031 59 319 1.0 7.0 0.00 0.00 0.00 75 1020.5
20260507044529 59 329 4.0 11.0 0.00 0.00 0.00 73 1020.4
20260507043030 60 330 3.0 8.0 0.00 0.00 0.00 67 1020.3
20260507041529 62 312 4.0 9.0 0.00 0.00 0.00 61 1020.0
20260507040035 63 248 6.0 14.0 0.00 0.00 0.00 59 1019.6
20260507034532 64 230 9.0 19.0 0.00 0.00 0.00 58 1019.5
20260507033029 64 228 9.0 19.0 0.00 0.00 0.00 57 1019.4
20260507031530 65 217 8.0 16.0 0.00 0.00 0.00 56 1019.3
20260507030031 66 224 7.0 17.0 0.00 0.00 0.00 53 1019.3
20260507024529 67 237 7.0 16.0 0.00 0.00 0.00 50 1019.3
20260507023030 68 248 10.0 19.0 0.00 0.00 0.00 48 1019.1
20260507021538 69 260 8.0 18.0 0.00 0.00 0.00 48 1019.0
20260507020030 69 275 7.0 16.0 0.00 0.00 0.00 49 1018.9
20260507011532 69 299 9.0 19.0 0.00 0.00 0.00 49 1018.8
20260507010030 68 311 7.0 17.0 0.00 0.00 0.00 51 1018.8
20260507004531 67 322 8.0 18.0 0.00 0.00 0.00 52 1018.8
20260507003038 68 316 8.0 17.0 0.00 0.00 0.00 51 1018.7
20260507001531 68 326 7.0 15.0 0.00 0.00 0.00 54 1018.6
20260507000031 67 342 5.0 11.0 0.00 0.00 0.00 55 1018.6
20260506234532 67 348 5.0 12.0 0.00 0.00 0.00 54 1018.6
20260506233032 67 353 6.0 14.0 0.00 0.00 0.00 54 1018.6
20260506231639 67 3 6.0 13.0 0.00 0.00 0.00 55 1018.7
20260506230030 68 347 8.0 18.0 0.00 0.00 0.00 53 1018.6
20260506224530 70 346 10.0 18.0 0.00 0.00 0.00 52 1018.5
20260506223033 71 342 9.0 21.0 0.00 0.00 0.00 51 1018.5
20260506221606 71 329 9.0 20.0 0.00 0.00 0.00 51 1018.5
20260506220036 71 325 10.0 21.0 0.00 0.00 0.00 51 1018.5
20260506214531 71 321 11.0 24.0 0.00 0.00 0.00 54 1018.5
20260506210030 71 342 8.0 19.0 0.00 0.00 0.00 54 1018.6
20260506204530 70 7 8.0 19.0 0.00 0.00 0.00 54 1018.8
20260506203030 70 2 9.0 16.0 0.00 0.00 0.00 54 1019.0
20260506201540 69 340 8.0 18.0 0.00 0.00 0.00 56 1019.2
20260506200037 69 348 9.0 18.0 0.00 0.00 0.00 57 1019.2
20260506194532 68 348 9.0 21.0 0.00 0.00 0.00 59 1019.2
20260506193030 68 336 10.0 21.0 0.00 0.00 0.00 59 1019.2
20260506191531 67 344 9.0 19.0 0.00 0.00 0.00 61 1019.4
20260506190031 67 342 9.0 18.0 0.00 0.00 0.00 63 1019.4
20260506184536 66 334 10.0 21.0 0.00 0.00 0.00 64 1019.4
20260506183107 66 322 12.0 24.0 0.00 0.00 0.00 64 1019.3